Kuiper-00015

operational
NORAD ID: 63731 Int'l Des: 2025-088 Owner: KUIP Country: US Constellation: kuiper
LEOCIRCULAR

Über Kuiper-00015

Beschreibung wird geladen...

Live-Position

3D-Globus wird geladen...

Nächste Überflüge

Höhenverlauf

Altitude vs Time

uPlot chart will show altitude changes over time

Zweizeiliger Elementsatz

1 63731U 25088H 26034.58335648 .00037294 00000-0 45126-2 0 9995
2 63731 51.8975 269.9956 0008836 326.9929 121.6330 14.83300333 5580
Epoch: 3. Feb. 2026 • Age: 9 hours

Aktueller Status

Höhe 632.0 km
Geschwindigkeit 7.54 km/s
Subsatellitenpunkt -50.63°S, 78°E
Startdatum 28. Apr. 2025
Alter 0.7 years
Typ internet

Technische Details

Klassifizierung Payload
Masse 490.00 kg
Trockenmasse 490.00 kg
Gesamtmasse 490.00 kg
Länge 1.80 m
Durchmesser 0.70 m
Spannweite 5.00 m
Form Box + 2 pan
Hersteller KUIP
Bus-Typ Kuiper
Phasenstatus In Orbit
Besitzer/Staat KUIP/US

Große Konstellationen

Loading constellations...